TimeCDT,TemperatureF,Dew PointF,Humidity,Sea Level PressureIn,VisibilityMPH,Wind Direction,Wind SpeedMPH,Gust SpeedMPH,PrecipitationIn,Events,Conditions,WindDirDegrees,DateUTC
12:15 AM,66.2,60.8,83,30.15,10.0,ESE,5.8,-,N/A,,Clear,120,2012-09-13 05:15:00
12:35 AM,66.2,60.8,83,30.16,10.0,ESE,4.6,-,N/A,,Clear,120,2012-09-13 05:35:00
12:55 AM,66.2,60.8,83,30.16,10.0,ESE,3.5,-,N/A,,Clear,110,2012-09-13 05:55:00
1:15 AM,64.4,60.8,88,30.16,10.0,Calm,Calm,-,N/A,,Clear,0,2012-09-13 06:15:00
1:35 AM,64.4,60.8,88,30.16,10.0,Calm,Calm,-,N/A,,Partly Cloudy,0,2012-09-13 06:35:00
1:55 AM,64.4,60.8,88,30.16,10.0,Calm,Calm,-,N/A,,Scattered Clouds,0,2012-09-13 06:55:00
2:15 AM,64.4,62.6,94,30.16,10.0,ENE,3.5,-,N/A,,Scattered Clouds,60,2012-09-13 07:15:00
2:35 AM,64.4,62.6,94,30.16,10.0,Calm,Calm,-,N/A,,Scattered Clouds,0,2012-09-13 07:35:00
2:55 AM,64.4,62.6,94,30.16,10.0,NE,4.6,-,N/A,,Partly Cloudy,40,2012-09-13 07:55:00
3:15 AM,64.4,62.6,94,30.16,10.0,NNE,3.5,-,N/A,,Partly Cloudy,30,2012-09-13 08:15:00
3:35 AM,64.4,62.6,94,30.16,10.0,NNE,4.6,-,N/A,,Partly Cloudy,30,2012-09-13 08:35:00
3:55 AM,64.4,62.6,94,30.16,10.0,Calm,Calm,-,N/A,,Partly Cloudy,0,2012-09-13 08:55:00
4:15 AM,64.4,62.6,94,30.16,10.0,NE,4.6,-,N/A,,Clear,40,2012-09-13 09:15:00
4:35 AM,64.4,62.6,94,30.16,10.0,NNE,3.5,-,N/A,,Clear,30,2012-09-13 09:35:00
4:55 AM,64.4,62.6,94,30.16,10.0,Calm,Calm,-,N/A,,Clear,0,2012-09-13 09:55:00
5:15 AM,62.6,60.8,94,30.16,10.0,NNE,3.5,-,N/A,,Clear,30,2012-09-13 10:15:00
5:35 AM,62.6,62.6,100,30.17,9.0,NE,4.6,-,N/A,,Clear,50,2012-09-13 10:35:00
5:55 AM,62.6,62.6,100,30.17,8.0,ENE,4.6,-,N/A,,Clear,70,2012-09-13 10:55:00
6:15 AM,64.4,62.6,94,30.18,10.0,ENE,4.6,-,N/A,,Clear,70,2012-09-13 11:15:00
6:35 AM,64.4,62.6,94,30.18,10.0,ENE,3.5,-,N/A,,Mostly Cloudy,60,2012-09-13 11:35:00
6:55 AM,64.4,62.6,94,30.18,10.0,NE,4.6,-,N/A,,Partly Cloudy,50,2012-09-13 11:55:00
7:15 AM,64.4,62.6,94,30.19,10.0,East,5.8,-,N/A,,Clear,80,2012-09-13 12:15:00
7:35 AM,64.4,62.6,94,30.19,10.0,NE,4.6,-,N/A,,Clear,50,2012-09-13 12:35:00
7:55 AM,66.2,64.4,94,30.20,10.0,East,3.5,-,N/A,,Clear,80,2012-09-13 12:55:00
8:15 AM,68.0,64.4,88,30.20,10.0,ENE,3.5,-,N/A,,Partly Cloudy,70,2012-09-13 13:15:00
8:35 AM,69.8,64.4,83,30.20,10.0,SE,3.5,-,N/A,,Partly Cloudy,130,2012-09-13 13:35:00
8:55 AM,69.8,64.4,83,30.20,10.0,SE,5.8,-,N/A,,Clear,130,2012-09-13 13:55:00
9:15 AM,71.6,66.2,83,30.21,10.0,SSE,5.8,-,N/A,,Clear,150,2012-09-13 14:15:00
9:35 AM,73.4,66.2,78,30.21,10.0,South,6.9,-,N/A,,Scattered Clouds,180,2012-09-13 14:35:00
9:55 AM,73.4,66.2,78,30.21,10.0,South,8.1,-,N/A,,Overcast,190,2012-09-13 14:55:00
10:15 AM,75.2,68.0,78,30.22,10.0,South,10.4,-,N/A,,Overcast,190,2012-09-13 15:15:00
10:35 AM,75.2,69.8,83,30.22,10.0,South,8.1,-,N/A,,Overcast,180,2012-09-13 15:35:00
10:55 AM,75.2,69.8,83,30.22,10.0,South,11.5,-,N/A,,Overcast,190,2012-09-13 15:55:00
11:15 AM,75.2,69.8,83,30.22,10.0,SSW,6.9,-,N/A,,Overcast,200,2012-09-13 16:15:00
11:35 AM,77.0,69.8,78,30.21,10.0,South,6.9,-,N/A,,Overcast,170,2012-09-13 16:35:00
11:55 AM,77.0,69.8,78,30.21,10.0,South,6.9,-,N/A,,Overcast,180,2012-09-13 16:55:00
12:15 PM,78.8,69.8,74,30.20,10.0,South,6.9,-,N/A,,Mostly Cloudy,180,2012-09-13 17:15:00
12:35 PM,78.8,69.8,74,30.20,10.0,South,4.6,-,N/A,,Overcast,190,2012-09-13 17:35:00
12:55 PM,78.8,69.8,74,30.19,10.0,SW,3.5,-,N/A,,Overcast,220,2012-09-13 17:55:00
1:15 PM,78.8,69.8,74,30.19,10.0,SSW,6.9,-,N/A,,Overcast,200,2012-09-13 18:15:00
1:35 PM,80.6,69.8,70,30.18,10.0,South,4.6,-,N/A,,Mostly Cloudy,190,2012-09-13 18:35:00
1:55 PM,82.4,69.8,66,30.18,10.0,South,4.6,-,N/A,,Scattered Clouds,180,2012-09-13 18:55:00
2:15 PM,80.6,69.8,70,30.16,10.0,SSE,4.6,-,N/A,,Partly Cloudy,160,2012-09-13 19:15:00
2:35 PM,82.4,69.8,66,30.16,10.0,SSW,4.6,-,N/A,,Clear,210,2012-09-13 19:35:00
2:55 PM,82.4,69.8,66,30.14,10.0,SSE,5.8,-,N/A,,Clear,150,2012-09-13 19:55:00
3:15 PM,82.4,66.2,58,30.14,10.0,South,3.5,-,N/A,,Clear,170,2012-09-13 20:15:00
3:35 PM,84.2,66.2,55,30.13,10.0,East,5.8,-,N/A,,Clear,100,2012-09-13 20:35:00
3:55 PM,84.2,68.0,58,30.12,10.0,East,6.9,-,N/A,,Clear,100,2012-09-13 20:55:00
4:15 PM,84.2,64.4,51,30.13,10.0,SSE,5.8,-,N/A,,Clear,150,2012-09-13 21:15:00
4:35 PM,84.2,68.0,58,30.12,10.0,ENE,8.1,-,N/A,,Scattered Clouds,70,2012-09-13 21:35:00
4:55 PM,84.2,66.2,55,30.12,10.0,East,4.6,-,N/A,,Partly Cloudy,100,2012-09-13 21:55:00
5:15 PM,84.2,66.2,55,30.12,10.0,East,5.8,-,N/A,,Clear,80,2012-09-13 22:15:00
5:35 PM,84.2,66.2,55,30.12,10.0,SE,12.7,17.3,N/A,,Clear,130,2012-09-13 22:35:00
5:55 PM,80.6,68.0,65,30.13,10.0,SSE,10.4,-,N/A,,Scattered Clouds,150,2012-09-13 22:55:00
6:15 PM,80.6,68.0,65,30.13,10.0,SSE,6.9,-,N/A,,Partly Cloudy,150,2012-09-13 23:15:00
6:35 PM,78.8,69.8,74,30.14,10.0,SSE,5.8,-,N/A,,Clear,160,2012-09-13 23:35:00
6:55 PM,78.8,69.8,74,30.14,10.0,SSE,4.6,-,N/A,,Clear,160,2012-09-13 23:55:00
7:15 PM,77.0,68.0,74,30.14,10.0,SE,4.6,-,N/A,,Clear,130,2012-09-14 00:15:00
7:35 PM,75.2,68.0,78,30.14,10.0,East,4.6,-,N/A,,Clear,100,2012-09-14 00:35:00
7:55 PM,73.4,68.0,83,30.15,10.0,East,5.8,-,N/A,,Clear,100,2012-09-14 00:55:00
8:15 PM,73.4,66.2,78,30.15,10.0,East,6.9,-,N/A,,Clear,100,2012-09-14 01:15:00
8:35 PM,71.6,66.2,83,30.16,10.0,ESE,6.9,-,N/A,,Clear,110,2012-09-14 01:35:00
8:55 PM,71.6,66.2,83,30.17,10.0,ESE,5.8,-,N/A,,Clear,110,2012-09-14 01:55:00
9:15 PM,71.6,66.2,83,30.18,10.0,ESE,3.5,-,N/A,,Clear,120,2012-09-14 02:15:00
9:35 PM,71.6,66.2,83,30.18,10.0,SE,3.5,-,N/A,,Clear,130,2012-09-14 02:35:00
9:55 PM,69.8,66.2,88,30.18,10.0,ESE,4.6,-,N/A,,Clear,120,2012-09-14 02:55:00
10:15 PM,69.8,66.2,88,30.19,10.0,East,4.6,-,N/A,,Clear,100,2012-09-14 03:15:00
10:35 PM,69.8,66.2,88,30.19,10.0,ESE,4.6,-,N/A,,Clear,120,2012-09-14 03:35:00
10:55 PM,69.8,64.4,83,30.19,9.0,Calm,Calm,-,N/A,,Clear,0,2012-09-14 03:55:00
11:15 PM,68.0,64.4,88,30.20,10.0,North,4.6,-,N/A,,Clear,10,2012-09-14 04:15:00
11:35 PM,68.0,64.4,88,30.20,10.0,NNE,4.6,-,N/A,,Clear,20,2012-09-14 04:35:00
11:55 PM,66.2,64.4,94,30.20,10.0,North,5.8,-,N/A,,Clear,360,2012-09-14 04:55:00